TimeEST,TemperatureF,Dew PointF,Humidity,Sea Level PressureIn,VisibilityMPH,Wind Direction,Wind SpeedMPH,Gust SpeedMPH,PrecipitationIn,Events,Conditions,WindDirDegrees,DateUTC
12:00 AM,48.2,44.6,87,30.28,6.0,Calm,Calm,-,N/A,Fog,Shallow Fog,0,2013-11-17 05:00:00
12:51 AM,50.0,45.0,83,30.27,10.0,Calm,Calm,-,N/A,,Overcast,0,2013-11-17 05:51:00
1:51 AM,50.0,45.0,83,30.26,10.0,Calm,Calm,-,N/A,,Overcast,0,2013-11-17 06:51:00
2:51 AM,50.0,45.0,83,30.25,5.0,Calm,Calm,-,N/A,,Overcast,0,2013-11-17 07:51:00
3:32 AM,50.0,44.6,82,30.24,6.0,Calm,Calm,-,N/A,,Overcast,0,2013-11-17 08:32:00
3:51 AM,51.1,46.0,83,30.24,6.0,Calm,Calm,-,N/A,,Overcast,0,2013-11-17 08:51:00
4:51 AM,51.1,46.0,83,30.23,5.0,Calm,Calm,-,N/A,,Overcast,0,2013-11-17 09:51:00
5:51 AM,51.1,46.0,83,30.22,5.0,Calm,Calm,-,N/A,,Overcast,0,2013-11-17 10:51:00
6:51 AM,53.1,46.9,80,30.21,5.0,NNE,3.5,-,N/A,,Overcast,20,2013-11-17 11:51:00
7:09 AM,53.6,46.4,77,30.20,4.0,Calm,Calm,-,N/A,,Haze,0,2013-11-17 12:09:00
7:51 AM,54.0,48.0,80,30.21,3.0,NNE,3.5,-,N/A,,Haze,30,2013-11-17 12:51:00
8:51 AM,55.9,48.9,77,30.19,4.0,Calm,Calm,-,N/A,,Haze,0,2013-11-17 13:51:00
9:51 AM,57.9,51.1,78,30.20,6.0,Calm,Calm,-,0.00,Rain,Light Rain,0,2013-11-17 14:51:00
10:51 AM,59.0,52.0,78,30.17,4.0,Calm,Calm,-,0.00,,Haze,0,2013-11-17 15:51:00
11:19 AM,60.8,51.8,72,30.15,3.0,Calm,Calm,-,N/A,,Haze,0,2013-11-17 16:19:00
11:51 AM,59.0,52.0,78,30.13,3.0,Calm,Calm,-,0.00,,Haze,0,2013-11-17 16:51:00
12:51 PM,60.1,53.1,78,30.10,3.0,East,3.5,-,0.00,,Haze,90,2013-11-17 17:51:00
1:03 PM,60.8,53.6,77,30.09,1.5,East,3.5,-,N/A,,Haze,80,2013-11-17 18:03:00
1:51 PM,64.9,55.9,73,30.07,1.8,SE,4.6,-,N/A,,Haze,130,2013-11-17 18:51:00
2:51 PM,61.0,57.0,87,30.06,2.5,Calm,Calm,-,0.00,,Overcast,0,2013-11-17 19:51:00
3:00 PM,60.8,57.2,88,30.05,2.5,Calm,Calm,-,N/A,,Overcast,0,2013-11-17 20:00:00
3:51 PM,63.0,57.0,81,30.03,2.5,Calm,Calm,-,N/A,,Haze,0,2013-11-17 20:51:00
4:51 PM,62.1,57.9,86,30.00,2.5,SSE,4.6,-,N/A,,Overcast,150,2013-11-17 21:51:00
5:51 PM,61.0,57.0,87,29.97,2.5,SE,3.5,-,N/A,,Mostly Cloudy,140,2013-11-17 22:51:00
6:51 PM,61.0,57.0,87,29.96,2.0,Calm,Calm,-,N/A,,Overcast,0,2013-11-17 23:51:00
7:49 PM,60.8,55.4,82,29.94,2.0,SSW,4.6,16.1,N/A,,Scattered Clouds,200,2013-11-18 00:49:00
7:51 PM,61.0,55.9,83,29.94,2.0,SW,4.6,-,N/A,,Haze,230,2013-11-18 00:51:00
7:54 PM,60.8,55.4,82,29.94,2.0,SW,4.6,-,N/A,,Haze,230,2013-11-18 00:54:00
8:21 PM,60.8,55.4,82,29.92,9.0,SW,4.6,-,N/A,,Overcast,230,2013-11-18 01:21:00
8:51 PM,61.0,55.0,81,29.91,10.0,SSE,5.8,-,N/A,,Overcast,160,2013-11-18 01:51:00
9:51 PM,61.0,55.9,83,29.86,10.0,South,5.8,-,0.00,,Overcast,170,2013-11-18 02:51:00
10:51 PM,61.0,55.9,83,29.82,10.0,South,4.6,-,N/A,,Mostly Cloudy,170,2013-11-18 03:51:00
11:27 PM,62.6,55.4,77,29.81,10.0,South,5.8,-,N/A,,Overcast,190,2013-11-18 04:27:00
11:51 PM,62.1,55.9,80,29.79,5.0,South,6.9,-,N/A,,Haze,170,2013-11-18 04:51:00